STARLINK-31540, 59542

Orbit data source: Space-Track

STARLINK-31540, 59542 is a payload satellite owned by SpaceX/Seattle (US) in LEO that was launched on Thu, 18 Apr 2024 UTC via an FALCON 9 launch vehicle from the Air Force Eastern Test Range (AFETR). Payload-class satellites include a variety of spacecraft equipped with specific instruments for various scientific and technological missions. These include communications satellites like Starlink; space stations such as the ISS; scientific satellites like the Hubble; Earth observation satellites from companies like Planet Labs, Umbra, and HawkEye 360; GPS; miniature CubeSats for education and research; and military/defense satellites.

Loading next visibility...
Identifier
59542, 2024-074J
Orbit
LEO
Country
Flag of USUS
Related business
Manufacturer
SpaceX/Seattle
Mission
Operational Commercial Communications
Bus & Motor
STARLINK V2M, Unknown motor
Mass
730 kg wet, ~700 kg dry
Launch date (UTC)
2024-04-18 (2 years ago)
Launch vehicle
FALCON 9
Launch site
Air Force Eastern Test Range (AFETR)
Object type
Payload
Rocket body
Debris
Shape & HBR
Box + 2 Pan, 17.7 m
Radar Cross Section
33.884 m², Large (>1 m²)

Expand to show TLE details & history
Last TLE update: 2 days ago

TLE from 2 days ago
0 STARLINK-31540
1 59542U 24074J   26171.26065102  .00000851  00000-0  40445-4 0  9996
2 59542  43.0010 124.0501 0001240 280.0496  80.0215 15.27581293121704
Epoch: 2026-06-20T06:15Z
TLE epoch observation values (Epoch: 2026-06-20T06:15:20.248Z)
Latitude
-0.00005°
Longitude
121.73786°
Altitude
482.673 km
Speed
7.626 km/s
True Right ascension
08h 16m 12s
True Declination
0° 00' 00"
Sunlit
Object was in daylight at epoch
Visualization orbit readout
Latitude
Unknown
Longitude
Unknown
Altitude
Unknown
Speed
Unknown
Apparent Right ascension
Unknown
Apparent Declination
Unknown
Sunlit
N/A
Visualization observer readout
Local Sidereal Time
21:29:08
Azimuth
Unknown
Elevation
Unknown
Doppler factor
Unknown
Orbital elements
Apogee altitude
485.841 km
Perigee altitude
484.139 km
Semi-major axis
6,863.127 km
Eccentricity
0.00012
Inclination
43.001°
RAAN
124.0501°
Arg. of periapsis
280.0496°
True anomaly
80.03549°
Mean anomaly
80.0215°
Eccentric anomaly
80.0285°
Mean motion
3.81733 °/min
Orbital period
94.31 mins
BSTAR
0.000040445
Loading maneuver chart data...
Computing Atmospheric mass density...
Loading historical data...
Loading historical data...
Loading historical data...
Loading historical data...
Loading historical data...
Loading historical data...
Loading historical data...

Documentation

Showing up to 5 results
|